Regional Weather Roundup
Issued by NWS Cleveland, OH

Home | Current Version | Previous Version | Graphics & Text | Print | Product List | Glossary On
Versions: 1 2 3 4 5 6 7 8 9 10 11 12 13 14 15 16 17 18 19 20 21 22 23 24 25 26 27 28 29 30 31 32 33 34 35 36 37 38 39 40 41 42 43 44 45 46 47 48 49 50
000
ASUS41 KCLE 230502
RWRCLE
OHIO REGIONAL WEATHER ROUNDUP
NATIONAL WEATHER SERVICE CLEVELAND, OH
1200 AM EST SUN NOV 23 2014

NOTE: "FAIR" INDICATES FEW OR NO CLOUDS BELOW 12,000 FEET WITH NO
SIGNIFICANT WEATHER AND/OR OBSTRUCTIONS TO VISIBILITY.

OHZ001>008-015>018-024>027-034-035-043-044-230600-
   NORTHWEST OHIO

CITY           SKY/WX    TMP DP  RH WIND       PRES   REMARKS
DEFIANCE       CLOUDY    51  40  65 SW12      29.98S
FINDLAY        CLOUDY    50  39  66 S12       30.00R
TOLEDO EXPRESS CLOUDY    51  39  63 SW10      29.97S
TOLEDO EXEC    CLOUDY    50  39  66 SW9       29.99S
LIMA           CLOUDY    52  37  56 SW13      30.01R
$$

OHZ009>014-019>023-028>033-038-089-230600-
   NORTHEAST OHIO

CITY           SKY/WX    TMP DP  RH WIND       PRES   REMARKS
CLE-HOPKINS    CLOUDY    48  36  63 S13       30.05R
CLE-LAKEFRONT  CLOUDY    51  35  54 S20G31    30.01R
CUY CO. ARPT   NOT AVBL
LORAIN-ELYRIA  CLOUDY    49  37  63 SW12      30.03R
ASHTABULA      CLOUDY    45  34  65 SW10G20   30.04R
AKRON-CANTON   CLOUDY    46  33  60 S10       30.05F
WOOSTER        CLOUDY   N/A N/A N/A SW13      30.06S
MANSFIELD      CLOUDY    48  37  65 S16       30.04S
YOUNGSTOWN     CLOUDY    46  34  62 SW10      30.05S
$$

OHZ042-051>053-060>062-070>072-077>081-230600-
  SOUTHWEST OHIO

CITY           SKY/WX    TMP DP  RH WIND       PRES   REMARKS
CINC-COVINGTON CLOUDY    51  31  46 S10       30.06F
CINC-LUNKEN    CLOUDY    43  35  73 SW3       30.08F
HAMILTON       CLOUDY    51  33  50 S5        30.06F
DAYTON         CLOUDY    52  35  52 S12       30.04F
WRIGHT-PAT AFB CLOUDY    51  33  49 S10       30.04F
DAYTON GENERAL CLOUDY    50  34  54 S14       30.04F
WILMINGTON     CLOUDY    46  32  58 S9        30.06F
$$

OHZ036-037-039>041-045>050-054>059-063>069-073>076-082>088-230600-
  CENTRAL AND SOUTHEAST OHIO

CITY           SKY/WX    TMP DP  RH WIND       PRES   REMARKS
COLUMBUS       CLOUDY    48  33  56 S5        30.07S
OSU AIRPORT    LGT RAIN  49  34  56 S8        30.06S
BOLTON FIELD   NOT AVBL
RICKENBACK AFB NOT AVBL
NEWARK         MOCLDY    44  32  62 CALM      30.07S
MARION         CLOUDY    49  36  61 SW15      30.05R
LANCASTER      CLOUDY    51  32  48 S5        30.08S
ZANESVILLE     CLOUDY    47  29  49 S5        30.09S
NEW PHILLY     CLOUDY    47  32  56 S5        30.09S
$$



USA.gov is the U.S. government's official web portal to all federal, state and local government web resources and services.